Theta_e
301 301 301 301 301 301 301 302 302 302 302 304 303 308 308 308 309 308 309 309 311 313 313 314 316 318 315 308 307 307 308 304 304 303 296 295 294 292 292 293 293 293 292 291 291
301 301 301 302 301 302 302 302 302 302 302 305 305 304 307 305 307 309 309 311 311 312 314 315 313 314 306 302 302 301 301 299 298 297 297 295 294 293 293 293 292 292 290 290 293
301 302 302 302 302 302 301 301 302 303 303 306 306 304 303 304 307 306 309 310 311 311 313 315 312 310 300 300 300 299 299 297 296 295 294 293 292 294 294 294 293 293 293 290 292
302 302 302 302 302 301 302 302 302 303 304 304 307 306 305 305 305 306 309 309 309 311 313 312 310 301 298 298 299 299 297 297 297 296 295 293 292 292 292 291 293 295 296 295 293
302 302 302 302 302 302 302 302 302 302 304 305 306 307 306 304 302 305 307 309 310 311 309 308 305 301 299 299 298 298 296 295 294 294 294 293 293 293 292 292 293 294 295 296 295
302 302 302 302 302 302 302 302 301 301 302 304 306 306 306 300 302 303 304 309 309 309 307 308 303 302 299 298 297 296 297 297 296 295 296 295 294 294 293 293 292 292 291 292 293
302 302 302 302 302 302 302 302 302 302 302 303 304 305 305 302 303 302 302 304 308 309 308 307 307 307 300 300 299 298 300 299 299 298 297 299 296 295 294 294 293 291 291 290 290
302 302 302 302 302 302 302 303 302 302 302 302 301 303 303 304 304 303 302 303 304 305 308 307 307 305 303 302 302 304 302 302 299 302 302 300 295 296 294 295 294 293 291 290 290
302 302 302 302 302 302 303 303 304 302 302 302 301 302 301 303 303 301 302 301 302 301 302 302 302 304 303 305 302 298 302 301 299 298 299 298 294 296 295 294 293 293 291 291 291
302 302 302 302 302 302 303 303 303 302 301 302 301 301 300 300 301 299 301 301 301 301 301 301 300 295 293 299 303 302 298 298 297 295 294 294 295 296 295 294 293 292 291 291 290
301 302 301 302 302 303 303 303 304 302 302 298 298 297 298 298 298 299 299 299 299 299 293 295 294 293 292 296 296 296 297 297 296 296 295 293 293 292 293 294 293 292 291 291 290
301 301 302 302 302 302 303 303 302 301 298 297 297 297 297 298 298 298 299 298 297 294 293 293 293 292 295 296 296 296 296 297 296 294 294 293 293 291 292 291 292 292 292 291 291
300 301 301 302 302 302 302 302 302 301 300 299 298 297 298 297 297 298 298 297 294 293 291 293 294 294 296 294 298 297 297 298 297 296 292 293 296 291 291 292 292 292 292 292 292
300 300 300 301 301 301 302 301 301 301 297 301 298 297 297 297 296 296 297 296 294 293 291 292 293 294 295 295 296 298 297 297 298 298 295 296 294 296 290 289 290 292 292 292 293
300 300 300 300 301 301 301 301 301 304 297 298 298 296 296 298 296 296 296 296 293 292 293 292 293 294 296 296 295 299 298 299 300 297 294 295 290 294 292 291 291 291 293 293 294
299 299 300 300 300 300 300 301 303 299 296 299 297 296 297 296 295 296 296 295 294 292 291 291 291 291 293 293 296 297 298 297 296 296 291 291 291 293 295 295 293 293 293 294 294
299 299 299 299 300 300 300 301 300 301 296 298 296 296 296 296 295 295 295 295 295 295 295 292 292 291 291 294 294 296 298 291 292 292 294 293 290 295 294 293 294 295 296 296 295
299 298 298 299 299 300 300 297 296 298 295 295 295 295 296 295 294 294 294 294 292 294 290 293 296 291 291 292 294 295 295 292 288 293 293 290 292 296 292 294 298 297 298 298 297
298 298 298 298 298 299 302 291 298 299 298 294 295 296 295 294 293 294 293 292 292 291 295 293 296 290 290 290 291 292 294 291 282 273 286 292 292 294 291 295 296 298 298 298 299
297 297 298 298 297 298 296 299 297 298 295 295 299 296 295 293 294 293 293 293 295 292 294 295 294 290 290 290 290 291 291 291 285 290 289 293 293 297 295 294 294 295 298 299 299
298 296 297 297 297 299 293 293 297 300 298 295 297 296 296 294 293 291 296 295 293 291 293 293 293 291 290 289 290 289 290 289 288 289 290 290 295 293 296 293 294 296 300 300 299
297 295 297 296 297 290 290 292 298 297 297 295 296 297 296 294 293 292 296 295 294 293 293 293 291 288 291 289 288 289 290 291 291 290 287 289 292 294 294 294 295 297 300 300 300
296 295 296 296 292 287 291 295 297 294 295 294 295 295 296 295 295 293 292 293 292 292 292 292 289 289 294 292 288 288 289 290 284 283 286 291 296 292 292 294 296 296 298 298 299
305 298 294 295 295 294 291 293 293 295 295 295 295 295 294 295 293 295 293 291 291 292 293 294 289 295 300 298 291 289 289 289 288 285 290 293 297 294 292 291 295 297 298 298 298
306 300 296 296 295 296 294 294 292 294 294 294 293 294 296 294 294 293 292 290 289 291 293 290 290 290 289 292 288 290 291 290 291 293 294 298 294 295 296 292 296 299 299 298 297
304 300 296 294 293 294 296 295 296 294 293 292 293 293 294 299 299 300 294 291 293 289 290 288 287 286 289 285 288 291 291 290 291 293 292 294 293 295 296 296 295 297 298 297 298
299 299 298 299 296 296 296 296 296 296 296 297 295 295 294 294 296 296 296 295 294 290 290 287 287 290 296 283 284 291 290 292 294 291 294 294 296 296 293 291 293 296 296 297 298
Wind_Speed
14 14 16 18 20 20 19 17 14 13 14 16 6 14 13 31 32 34 43 27 28 17 10 5 7 1 10 17 14 5 4 5 4 3 5 9 4 11 12 17 19 9 10 7 5
11 11 13 14 15 17 20 22 20 16 12 17 13 11 5 14 35 45 32 27 27 21 8 4 12 8 14 13 11 10 5 5 4 3 5 10 7 5 6 13 15 11 13 10 7
9 10 11 12 13 13 14 18 21 20 15 19 19 4 12 6 20 37 33 30 26 21 7 7 12 23 21 17 17 9 5 5 12 16 15 9 9 5 9 9 10 10 12 14 15
7 9 9 11 13 14 15 15 17 20 14 13 20 16 2 3 7 30 33 30 22 24 17 12 21 17 10 12 15 9 20 12 5 8 7 5 7 10 16 7 9 11 10 9 13
5 7 7 7 6 8 10 12 10 14 19 16 12 12 23 33 19 22 29 30 31 26 36 42 45 23 10 11 22 13 13 20 24 26 23 20 18 10 14 12 13 13 15 15 12
4 4 5 5 4 7 8 11 10 8 10 19 16 12 24 31 18 17 21 25 27 34 41 44 39 36 24 15 13 16 20 12 12 14 12 9 10 3 7 13 11 11 12 14 15
4 3 3 5 6 7 8 8 5 7 5 9 9 16 32 17 12 12 17 23 26 25 28 20 14 11 17 16 14 17 8 8 3 2 4 3 7 5 5 3 8 6 6 8 12
2 2 3 2 2 5 7 10 8 1 6 5 2 10 12 11 11 5 8 12 16 20 28 29 31 36 13 23 6 1 1 3 4 1 2 1 2 3 3 2 4 5 4 7 8
4 1 2 3 3 5 9 8 12 2 4 5 6 4 6 6 6 8 6 11 13 19 17 10 17 13 7 4 4 8 3 5 3 7 1 3 3 8 7 4 6 4 2 3 3
3 1 2 6 2 7 10 2 11 6 1 2 3 5 5 4 6 7 7 3 2 2 6 9 10 5 5 3 2 3 4 4 4 6 7 4 2 8 10 9 9 5 2 1 0
3 1 3 4 4 8 8 1 3 2 14 12 7 8 6 7 9 4 6 7 5 8 6 12 10 6 7 6 5 8 6 5 2 3 4 4 1 7 10 12 13 10 8 6 4
5 4 4 7 9 9 3 2 5 4 8 8 7 8 7 3 3 8 3 2 6 4 4 7 6 5 2 7 9 7 7 3 1 3 3 3 6 8 12 11 17 14 13 12 10
4 4 5 6 7 4 3 5 4 2 3 3 4 3 3 5 5 8 3 7 8 7 7 6 0 3 4 6 6 5 5 2 2 2 3 2 6 6 8 18 18 20 19 17 15
6 5 4 4 4 3 3 3 3 2 5 1 0 1 3 2 4 7 5 2 5 4 4 5 4 2 3 4 2 3 3 3 4 3 1 4 4 5 6 9 17 27 26 25 21
7 7 5 3 2 3 2 1 2 3 4 1 0 1 3 2 2 4 6 5 4 4 2 0 3 4 4 1 1 3 2 3 2 3 4 1 3 6 3 8 14 27 33 31 27
8 8 6 5 4 3 3 1 2 7 6 1 1 1 1 3 2 2 2 5 7 5 8 3 2 2 1 1 1 2 3 4 3 3 3 4 4 5 6 9 5 25 37 36 33
8 8 7 6 4 6 5 3 5 4 3 4 3 1 1 1 2 3 2 1 3 4 2 1 0 0 2 3 2 3 3 3 5 4 4 2 2 11 7 8 12 22 38 39 37
10 9 7 7 5 6 9 5 4 4 7 2 2 2 3 4 1 2 2 3 3 3 3 5 5 5 3 2 4 2 4 4 5 2 4 4 6 6 6 12 17 15 26 35 38
12 11 10 9 8 9 8 3 9 8 7 10 3 2 3 1 3 2 6 5 7 9 7 4 2 1 1 1 2 3 3 3 7 1 3 3 7 10 6 7 13 21 20 30 38
13 12 15 11 11 13 3 7 6 4 9 4 10 7 7 5 4 5 6 4 4 7 1 5 2 0 1 1 2 1 5 3 3 1 5 5 6 7 5 10 9 16 28 30 33
12 5 10 13 15 11 4 8 7 10 12 8 10 6 7 8 8 6 5 2 6 5 4 4 3 1 2 7 8 3 3 2 3 4 5 2 6 8 10 11 15 26 35 33 35
9 3 10 17 8 2 5 8 7 8 17 8 3 6 10 10 9 7 11 8 16 21 10 7 5 4 7 0 1 2 5 6 4 6 4 2 9 5 9 10 21 30 36 35 34
7 8 13 23 4 3 4 5 6 6 7 8 8 8 3 9 1 9 6 2 19 15 10 9 3 2 7 1 2 5 6 4 3 3 7 6 8 2 6 12 19 24 27 32 35
6 1 8 22 8 5 5 5 5 12 5 8 4 5 4 5 2 5 6 3 14 13 6 14 4 8 12 9 6 6 8 13 7 4 4 14 23 10 9 11 22 29 29 29 32
12 8 7 4 8 11 8 6 5 5 10 12 3 7 9 6 2 5 3 3 4 9 8 6 9 6 5 3 5 5 7 17 18 23 13 23 23 25 23 15 33 34 32 30 31
11 5 7 3 3 12 12 7 12 4 9 6 7 12 14 14 15 13 8 5 7 5 7 4 4 3 5 1 5 9 13 14 25 15 22 22 31 16 17 21 28 38 35 35 37
16 10 5 5 5 3 6 8 8 7 10 22 15 9 7 16 11 10 12 7 12 14 13 9 6 4 15 2 6 14 22 25 20 14 21 20 40 6 15 22 32 40 40 41 44
Wind_Direction
66 64 60 63 71 64 58 57 47 42 36 34 128 105 70 41 39 38 31 357 356 3 344 341 335 349 50 55 49 60 65 59 46 95 147 154 102 68 71 66 63 62 68 57 48
67 61 59 65 62 58 59 57 45 37 43 27 17 205 160 42 30 38 18 18 9 15 23 56 58 86 62 29 33 49 63 41 6 51 101 96 97 102 85 67 56 50 79 87 105
64 61 65 68 60 63 64 51 41 45 55 38 29 60 223 308 29 16 22 24 20 16 359 76 62 82 52 50 19 35 82 105 69 87 95 91 74 80 104 62 78 56 65 84 91
67 62 72 77 70 76 63 39 45 45 49 44 51 56 34 344 62 25 29 31 42 46 70 103 84 67 71 59 43 97 56 67 64 50 80 58 82 70 65 92 110 107 91 102 102
71 76 78 85 72 45 28 30 46 47 51 54 56 84 81 76 56 40 36 46 58 66 83 90 82 76 83 88 64 61 76 76 90 83 78 92 75 77 72 104 96 95 97 92 95
58 80 67 76 72 48 39 35 51 60 51 57 64 81 81 74 58 47 43 53 56 72 79 86 90 91 73 54 54 113 100 98 82 85 92 74 44 53 97 104 72 65 70 72 71
60 115 91 84 80 49 38 28 23 58 47 73 67 56 71 83 66 47 43 51 58 62 75 77 94 103 98 96 101 119 96 112 71 97 156 1 33 19 153 37 70 53 66 86 98
47 135 161 135 78 34 37 10 332 211 34 42 7 50 76 80 74 71 47 60 54 67 77 83 86 86 91 118 122 61 218 51 6 266 67 260 282 282 211 33 10 3 44 80 99
4 340 204 192 125 41 0 3 24 168 46 42 40 85 76 83 66 54 94 82 61 81 69 54 46 76 94 113 80 28 51 19 338 17 3 16 205 215 202 252 304 338 26 65 103
9 349 164 150 117 0 355 348 40 41 249 355 37 86 71 60 60 70 92 125 126 138 353 45 55 60 22 54 109 122 96 37 21 343 30 48 101 184 220 255 265 272 248 150 198
348 324 189 217 311 341 345 324 321 7 66 74 62 86 101 81 64 69 109 83 86 50 39 30 62 32 331 1 93 109 96 103 319 309 44 15 321 241 242 245 254 247 236 228 224
342 325 278 277 305 322 350 71 60 119 76 66 68 73 66 74 82 59 80 86 55 50 1 41 51 319 26 46 68 76 99 65 48 28 65 321 277 250 242 248 242 238 232 223 215
325 321 306 296 305 320 117 88 88 102 83 55 48 36 58 58 52 17 63 90 86 52 29 99 167 24 81 41 59 31 95 149 135 47 80 15 284 238 239 233 235 235 238 235 226
306 315 312 299 285 202 137 69 30 355 71 277 9 19 353 84 52 42 66 91 54 140 91 78 355 76 70 73 1 66 10 74 104 54 193 75 276 263 226 245 234 236 232 231 226
305 302 312 296 282 205 189 346 16 9 12 277 338 246 54 86 119 29 38 65 99 97 122 19 28 29 48 19 340 140 85 52 73 87 67 3 71 266 95 252 239 235 232 231 225
292 297 296 293 253 252 203 213 9 43 262 286 246 175 84 46 54 62 51 72 116 86 45 103 69 79 71 3 353 135 87 55 54 63 21 228 133 267 194 215 229 226 230 228 225
274 277 278 282 259 232 205 165 35 133 336 266 239 156 92 109 47 40 40 71 170 94 202 340 255 125 145 103 12 65 56 350 356 7 222 164 55 248 241 227 218 214 224 225 224
273 271 263 257 250 216 180 54 125 231 215 97 79 63 200 146 208 76 62 274 226 94 98 157 302 175 166 159 179 157 145 157 216 235 266 352 237 249 219 234 231 230 232 227 225
273 270 265 251 231 202 178 83 204 198 155 150 99 169 265 193 137 135 202 221 210 180 162 131 253 3 31 106 135 196 183 138 100 71 36 229 279 290 230 256 223 224 229 227 226
264 268 259 238 222 196 104 229 229 195 133 154 182 155 197 197 161 182 189 198 190 188 106 193 76 264 150 61 23 186 152 74 1 266 287 280 283 242 250 229 221 222 223 224 224
258 241 236 212 199 180 177 224 241 215 181 164 203 156 199 181 186 202 214 235 166 142 124 137 104 278 42 203 180 153 207 67 127 149 193 257 255 217 223 204 208 221 223 223 221
220 238 215 189 172 193 172 194 213 199 208 236 207 192 184 173 185 219 213 221 176 153 166 188 143 174 199 99 54 244 218 166 140 230 228 179 263 252 230 226 218 226 228 228 227
216 222 200 187 182 241 269 249 224 160 195 189 224 209 176 173 208 202 202 205 179 166 165 181 233 23 332 12 6 217 199 170 94 63 200 158 258 263 244 242 236 239 236 235 231
202 234 192 199 229 186 172 232 228 211 221 190 197 135 117 196 240 236 226 183 194 196 174 159 160 181 231 216 133 183 198 189 154 145 198 221 251 259 244 231 236 235 240 237 234
217 230 195 197 237 211 187 163 165 209 222 198 229 209 177 193 196 227 221 162 198 208 183 166 209 189 241 207 194 212 193 185 205 219 202 254 231 241 236 223 229 232 238 236 234
237 214 194 269 233 198 209 208 216 233 158 237 228 208 212 219 206 231 162 184 195 154 162 213 235 125 272 268 247 250 226 198 221 230 247 265 271 246 257 241 238 242 236 236 234
240 239 229 211 177 155 210 208 226 189 254 245 224 231 213 235 261 280 232 228 203 162 187 161 148 123 260 55 327 279 212 212 220 207 217 231 247 224 239 228 231 236 236 238 243